Regional Weather Roundup
Issued by NWS

Home | Current Version | Previous Version | Text Only | Print | Product List | Glossary Off
Versions: 1 2 3 4 5 6 7 8 9 10 11 12 13 14 15 16 17 18 19 20 21 22 23 24 25 26 27

000
ASUS45 KBOU 271407
RWRCO

WEATHER ROUNDUP FOR COLORADO
NATIONAL WEATHER SERVICE DENVER/BOULDER CO
800 AM MDT WED JUL 27 2016

NOTE: "FAIR" INDICATES FEW OR NO CLOUDS BELOW 12000 FEET WITH NO
SIGNIFICANT WEATHER AND/OR OBSTRUCTIONS TO VISIBILITY.

COZ001>005-013-030-031-271500-
...NORTHWEST COLORADO...

CITY           SKY/WX    TMP DP  RH WIND       PRES   REMARKS
CRAIG          FAIR      56  44  64 CALM      30.30R
HAYDEN         FAIR      59  37  44 E10       30.32S
MEEKER         FAIR      59  42  53 E3        30.32R
MOUNT WERNER   NOT AVBL
STEAMBOAT SPGS FAIR      53  40  61 CALM      30.35S
WALDEN         FAIR      50  34  53 SE5       30.44S
$$

COZ006>008-011-271500-
...WEST CENTRAL VALLEYS...

CITY           SKY/WX    TMP DP  RH WIND       PRES   REMARKS
GRAND JUNCTION FAIR      70  44  39 S9        30.20R
MONTROSE       FAIR      66  42  41 E6        30.29R
EAGLE          SUNNY     55  39  54 CALM      30.41R
RIFLE          FAIR      64  41  42 NE3       30.28R
DELTA          FAIR      69  43  39 E6        30.25S
NUCLA          FAIR      64  41  42 E6        30.32R
$$

COZ017>023-064>068-271500-
...SOUTHWEST COLORADO...

CITY           SKY/WX    TMP DP  RH WIND       PRES   REMARKS
DURANGO        FAIR      60  48  64 SE3       30.34R
CORTEZ         FAIR      64  47  53 CALM      30.28R
PAGOSA SPRINGS FAIR      59  43  54 CALM      30.43R
TELLURIDE      FAIR      58  41  53 CALM      30.55R
WOLF CREEK PAS FAIR      54  34  47 NE9       30.74S
$$

COZ009-010-012-014-032>034-037-058>063-271500-
...CENTRAL COLORADO...

CITY           SKY/WX    TMP DP  RH WIND       PRES   REMARKS
ASPEN          FAIR      57  39  51 E3        30.42S
BUENA VISTA    FAIR      58  35  42 NW6       30.44S
COPPER MTN     FAIR      55  28  35 W12       30.73R
BERTHOUD PASS  FAIR      45  32  61 N12G23    30.76R
COTTONWOOD PAS FAIR      63  32  31 CALM      30.56R
GUNNISON       FAIR      48  37  66 CALM      30.50R
KREMMLING      FAIR      46  37  71 CALM      30.46R
LEADVILLE      FAIR      53  34  48 CALM      30.56S
MONARCH PASS   FAIR      50  32  50 NW5       30.82R
SALIDA         FAIR      59  38  46 W3        30.49S
SUNLIGHT       FAIR      59  32  36 MISG      30.66R
WILKERSON PASS FAIR      57  28  33 N6        30.69R
$$

COZ069>075-271500-
...SAN LUIS VALLEY/SANGRE DE CRISTO MOUNTAINS...

CITY           SKY/WX    TMP DP  RH WIND       PRES   REMARKS
ALAMOSA        FAIR      57  45  64 NW3       30.41R
LA VETA PASS   FAIR      55  43  62 S3        30.57R
SAGUACHE       FAIR      61  41  48 NW15      30.43R
$$

COZ035-036-038>040-271500-
...NORTHERN COLORADO FRONT RANGE...

CITY           SKY/WX    TMP DP  RH WIND       PRES   REMARKS
DENVER INTL AP FAIR      69  47  45 NW14      30.22R
DMNS CITY PARK   N/A     69  48  46 E2        30.21R
AURORA         MOSUNNY   69  50  50 W6        30.23R
FRONT RANGE AP MOSUNNY   72  50  46 NW14G23   30.22R
ERIE MUNI ARPT FAIR      68  43  40 N8        30.21R
BOULDER MUN AP FAIR      66  45  45 NE8G16    30.22R
CENTENNIAL     FAIR      69  40  34 W7        30.24R
BROOMFIELD     MOSUNNY   70  39  32 SW5       30.22R
LONGMONT       FAIR      72  47  40 E5        30.22R
$$

COZ041-046-047-076>085-087-088-271500-
...PIKES PEAK/PALMER DIVIDE AND SOUTHERN FOOTHILLS...

CITY           SKY/WX    TMP DP  RH WIND       PRES   REMARKS
COLO. SPRINGS  FAIR      67  58  72 CALM      30.28S
A. F. ACADEMY  MOSUNNY   63  58  83 NW6       30.28S
SCHRIEVER AFB  NOT AVBL
ELLICOTT       FAIR     N/A N/A N/A CALM      30.25F
FALCON         NOT AVBL
FORT CARSON    FAIR      66  57  73 N3        30.24F
LIMON          FAIR      68  57  68 S3        30.23R
MONUMENT HILL  FAIR      64  52  63 SW5       30.32S
TRINIDAD       NOT AVBL
$$

COZ042>045-048>051-090-091-271500-
...NORTHEAST COLORADO...

CITY           SKY/WX    TMP DP  RH WIND       PRES   REMARKS
GREELEY ARPT   FAIR      64  52  63 NE8       30.20R
AKRON          FAIR      67  57  70 S8        30.17R
BURLINGTON     FOG       64  61  90 SE8       30.15R VSB 1/4
WRAY           NOT AVBL
STERLING       FAIR      66  61  82 SE3       30.14R
HOLYOKE        FAIR      66  59  77 CALM      30.15S
FORT MORGAN    FAIR      68  58  70 SE3       30.17R
$$

COZ086-089-092>099-271500-
...SOUTHEAST COLORADO...

CITY           SKY/WX    TMP DP  RH WIND       PRES   REMARKS
PUEBLO         FAIR      71  61  70 W7        30.19R
LA JUNTA       FAIR      74  61  63 CALM      30.14S
LAMAR          FAIR      70  60  70 NE6       30.11R
SPRINGFIELD      N/A     73  62  68 S6        30.14R
$$




USA.gov is the U.S. government's official web portal to all federal, state and local government web resources and services.